Regional & State Weather Roundups


747 
ASUS41 KLWX 131610
RWRLWX
REGIONAL WEATHER ROUNDUP
NATIONAL WEATHER SERVICE BALTIMORE MD/WASHINGTON DC
1100 AM EST SAT FEB 13 2016
Note: "FAIR" indicates few or no clouds below 12,000 feet
with no significant weather and/or obstructions to visibility.
 TC=TEMPERATURE CELSIUS
 * =Non NWS site. Station does not report precipitation (e.g. rain,
    snow, etc.), thunder, or fog.
DCZ001-MDZ009-015-VAZ040>042-051-053>054-131700-
WASHINGTON METRO
  
CITY           SKY/WX    TMP DP  RH WIND       PRES   REMARKS
WASHINGTON NAT PTSUNNY   22   0  38 NW20G28   30.29R WCI   7          
DULLES         PTSUNNY   19   2  47 W22G32    30.27R WCI   2          
ANDREWS AFB    MOSUNNY   20   3  46 NW22G33   30.23R WCI   4          
FT BELVOIR     PTSUNNY   23  -4  31 NW21G30   30.28R WCI   7          
QUANTICO       FAIR      23   0  36 N23G38    30.30R WCI   7          
COLLEGE PARK*  FAIR      23  -4  30 NW20G28   30.27S WCI   8          
LEESBURG*      PTSUNNY   23   3  42 NW20G31   30.28R WCI   8          
MANASSAS*      MOSUNNY   21   0  39 NW23G35   30.29R WCI   5          
GAITHERSBURG*  MOSUNNY   18  -2  41 NW18G31   30.27S WCI   2          
$$
MDZ006>007-011-014-131700-
BALTIMORE METRO
  
CITY           SKY/WX    TMP DP  RH WIND       PRES   REMARKS
BWI AIRPORT    MOSUNNY   21  -5  31 W22G35    30.23R WCI   5          
MD SCIENCE CTR   N/A     20  -6  31 MISG      30.27R                  
MARTIN STATE   MOSUNNY   25  -2  30 W26G37    30.23R WCI   9          
ANNAPOLIS      SUNNY     21  -4  33 W18G32    30.24R WCI   6          
FORT MEADE*    SUNNY     23   0  36 NW15G32   30.27R WCI  10          
$$
MDZ012-015-019>023-131700-
MARYLAND EASTERN SHORE
  
CITY           SKY/WX    TMP DP  RH WIND       PRES   REMARKS
OCEAN CITY     MOSUNNY   25   3  38 NW20G35   30.17R WCI  11          
SALISBURY      CLOUDY    25   5  42 NW16G28   30.18R WCI  12          
BAY BRIDGE AP*   N/A     23   0  36 W17G29    30.24R WCI   9          
CAMBRIDGE*     MOSUNNY   25   1  36 NW18G30   30.22R WCI  11          
EASTON*        MOSUNNY   25   9  50 NW23G37   30.25R WCI  10          
$$
MDZ017>025-131700-
SOUTHERN MARYLAND
  
CITY           SKY/WX    TMP DP  RH WIND       PRES   REMARKS
PATUXENT RIVER PTSUNNY   23   7  50 NW25G33   30.24R WCI   7          
ST INIGOES     MOSUNNY   26   3  37 NW17G30   30.24R WCI  13          
LEONARDTOWN*   PTSUNNY   23   1  39 MISG      30.26R                  
$$
MDZ003>005-131700-
NORTH CENTRAL MARYLAND
  
CITY           SKY/WX    TMP DP  RH WIND       PRES   REMARKS
FREDERICK*     PTSUNNY   18   3  53 NW16G24   30.29S WCI   3          
HAGERSTOWN APT CLOUDY    16   0  49 NW20      30.23R WCI  -1          
WESTMINSTER*   MOSUNNY   16   3  57 NW16      30.19R WCI   0          
$$
MDZ501>502-131700-
WESTERN MARYLAND
  
CITY           SKY/WX    TMP DP  RH WIND       PRES   REMARKS
OAKLAND*       CLOUDY     1  -9  60 W17G28    30.08R HAZE    WCI -19  
CUMBERLAND*    MOSUNNY   14  -4  44 NW10G25   30.33S WCI   1          
$$
VAZ025>031-131700-
SHENANDOAH VALLEY
  
CITY           SKY/WX    TMP DP  RH WIND       PRES   REMARKS
WINCHESTER*    CLOUDY    19   0  42 W22G33    30.26S WCI   3          
FRONT ROYAL*   FAIR      18   0  45 NW12G21   30.25R WCI   5          
LURAY*         PTSUNNY   19  -2  38 W12G25    30.25R WCI   7          
NEW MARKET*    CLOUDY    18   1  47 NW9G18    30.25R WCI   7          
STAUNTON*      PTSUNNY   23  -5  30 NW12G21   30.26R WCI  11          
WAYNESBORO*    FAIR      19 -10  27 W12G23    30.21R WCI   6          
$$
WVZ021-048>050-054>055-131700-
EASTERN WEST VIRGINIA PANHANDLE
  
CITY           SKY/WX    TMP DP  RH WIND       PRES   REMARKS
MARTINSBURG    CLOUDY    16  -4  41 NW18G26   30.27R WCI   0          
PETERSBURG*    PTSUNNY   14  -4  44 NW9G30    30.31R WCI   2          
$$
VAZ036>039-050-131700-
CENTRAL FOOTHILLS
  
CITY           SKY/WX    TMP DP  RH WIND       PRES   REMARKS
CHARLOTTESVILL FAIR      22  -5  30 NW16G24   30.26R WCI   8          
CULPEPER*      FAIR      22   0  38 W17G24    30.29R WCI   8          
ORANGE*        FAIR      27   0  31 NW10G18   30.28S WCI  17          
GORDONSVILLE*  FAIR      23  -4  29 NW12G22   30.27R WCI  12          
WARRENTON*     PTSUNNY   24   6  46 N17G24    30.27R WCI  11          
$$
VAZ055>057-131700-
NORTH AND CENTRAL PIEDMONT
  
CITY           SKY/WX    TMP DP  RH WIND       PRES   REMARKS
FREDERICKSBRG* PTSUNNY   24   7  49 NW14G21   30.28R WCI  11          
STAFFORD*      CLOUDY    23  -2  33 NW20G26   30.31S WCI   9          
$$
NCZ024-NYZ072-PAZ021-071-VAZ022-071-131700-
OTHER REGIONAL OBSERVATIONS
  
CITY           SKY/WX    TMP DP  RH WIND       PRES   REMARKS
NEW YORK CITY  MOSUNNY   20  -6  31 W16G32    30.05R WCI   6          
PHILADELPHIA   PTSUNNY   21   1  41 W22G31    30.15R WCI   5          
PITTSBURGH     CLOUDY     9  -3  58 NW24G30   30.31R WCI -12          
ROANOKE        FAIR      21  -3  35 NW18G25   30.31R WCI   6          
RICHMOND       FAIR      27  -3  27 W17       30.27R WCI  14          
RALEIGH        MOSUNNY   31   3  30 VRB6G16   30.31R                  
$$
ANZ530>537-131700-
MARINE OBSERVATIONS
  
STATION/POSITION TIME  TEMP    WIND        PRES
                       AIR SEA DIR/SP/G
                 (UTC) (F)     (DEG/KT/KT) (MB)
THOMAS PT LIGHT  1600   19 36  290/ 25/ 28 1024.3R
BALT KEY BRIDGE  1500   20     280/ 29/ 33 1022.3R
COVE POINT       1500   20     340/ 19/ 26 1024.0R
LEWISETTA        1500   24 35  340/ 20/ 27 1023.5R
SOLOMONS ISLAND  1500   22 38  310/ 14/ 22   N/A
PINEY POINT      1500          340/ 30/ 33   N/A
$$